Powrót do katalogu

HILAT

AktywnyNaukaPO
NORAD 14154·PAYLOAD·🇺🇸 United States

Wystrzelony Jun 27, 1983 z Vandenberg Space Force Base

Loading…

Następne Przeloty (najbliższe 24 godziny)

TLE

ŚwieżeSource: Space-Track

Epoka: Sep 14, 2026, 12:41 UTC

1 14154U 83063A   26257.52864428  .00000232  00000-0  69714-4 0  9994
2 14154  82.0208  77.9558 0039724  21.4999 359.4061 14.38756667260433

Śledź HILAT w czasie rzeczywistym z AllMySat

Download on the App Store